This demonstration page uses our WeatherBlox Daily Observations layout. Learn more.

Left ArrowRight Arrow

39.01783, -85.05884

Hourly Observations for October 28, 2020

Temp ( °F °C ) Dew Point ( °F °C ) Humidity (%) Winds ( mph kmh ) Pressure ( in mb ) Visibility ( mi km ) Precip ( " mm )
12:52 am 00:52 Cloudy with Mist and Fog 48 8.9 46 7.8 93 93 NNE 8 13 30.14 1021 1 1.60934 0 0
1:52 am 01:52 Cloudy with Mist and Fog 48 8.9 46 7.8 93 93 N 6 9 30.12 1020 1 1.60934 0 0
2:52 am 02:52 Cloudy with Mist and Fog 48 8.9 46 7.8 93 93 NNE 3 6 30.11 1020 1 1.60934 0 0
3:50 am 03:50 Cloudy with Mist and Fog 48 9 46 8 94 94 S 6 9 30.13 1020 1 1.60934 0 0
3:52 am 03:52 Cloudy with Mist and Fog 48 8.9 46 7.8 93 93 S 6 9 30.12 1020 1 1.60934 0 0
4:23 am 04:23 Cloudy with Mist and Fog 48 8.9 46 7.8 93 93 S 7 11 30.12 1020 1.75 2.816345 0 0
4:52 am 04:52 Cloudy with Mist and Fog 49 9.4 47 8.3 93 93 S 6 9 30.08 1019 1.75 2.816345 0 0
5:08 am 05:08 Cloudy with Mist and Fog 49 9.4 47 8.3 93 93 S 3 6 30.09 1019 5 8.0467 0 0
5:39 am 05:39 Cloudy 49 9.4 47 8.3 93 93 SSW 3 6 30.1 1019 7 11.26538 0 0
5:52 am 05:52 Cloudy 49 9.4 47 8.3 93 93 Calm 30.08 1019 8 12.87472 0 0
6:30 am 06:30 Cloudy 49 9.4 47 8.3 93 93 SSW 5 7 30.08 1019 8 12.87472 0 0
6:52 am 06:52 Cloudy with Mist and Fog 50 10 47 8.3 89 89 NW 6 9 30.08 1019 5 8.0467 0 0
7:52 am 07:52 Cloudy with Mist and Fog 49 9.4 47 8.3 93 93 SSW 6 9 30.06 1018 2 3.21868 0 0
8:52 am 08:52 Cloudy with Mist and Fog 49 9.4 47 8.3 93 93 SW 5 7 30.08 1019 0.5 0.80467 0 0
9:52 am 09:52 Cloudy with Mist and Fog 49 9.4 48 8.9 97 97 NNW 5 7 30.1 1019 1 1.60934 0 0
10:09 am 10:09 Cloudy with Mist and Fog 50 10 48 8.9 93 93 NW 5 7 30.11 1020 1.75 2.816345 0 0
10:22 am 10:22 Cloudy with Mist and Fog 50 10 47 8.3 89 89 W 5 7 30.11 1020 3 4.82802 0 0
10:31 am 10:31 Cloudy with Mist and Fog 51 10.6 48 8.9 89 89 W 6 9 30.11 1020 3 4.82802 0 0
10:52 am 10:52 Cloudy with Mist and Fog 51 10.6 47 8.3 86 86 NW 5 7 30.09 1019 5 8.0467 0 0
11:52 am 11:52 Cloudy 51 10.6 47 8.3 86 86 N 8 13 30.09 1019 7 11.26538 0 0
12:52 pm 12:52 Cloudy 51 10.6 46 7.8 83 83 N 6 9 30.09 1019 7 11.26538 0 0
1:52 pm 13:52 Cloudy 53 11.7 47 8.3 80 80 VRB 3 6 30.06 1018 7 11.26538 0 0
2:01 pm 14:01 Cloudy 54 12.2 47 8.3 77 77 Calm 30.06 1018 8 12.87472 0 0
2:16 pm 14:16 Cloudy 53 11.7 47 8.3 80 80 Calm 30.06 1018 8 12.87472 0 0
2:52 pm 14:52 Cloudy 53 11.7 47 8.3 80 80 N 6 9 30.05 1018 10 16.0934 0 0
3:52 pm 15:52 Cloudy 53 11.7 47 8.3 80 80 ENE 6 9 30.01 1016 10 16.0934 0 0
4:52 pm 16:52 Cloudy 53 11.7 47 8.3 80 80 E 3 6 30.01 1016 10 16.0934 0 0
5:52 pm 17:52 Cloudy 53 11.7 47 8.3 80 80 ENE 6 9 29.99 1016 10 16.0934 0 0
6:52 pm 18:52 Cloudy 53 11.7 47 8.3 80 80 ENE 7 11 29.99 1016 8 12.87472 0 0
7:16 pm 19:16 Cloudy 53 11.7 47 8.3 80 80 ENE 5 7 30 1016 9 14.48406 0 0
7:52 pm 19:52 Cloudy 54 12.2 48 8.9 80 80 NE 6 9 29.98 1015 9 14.48406 0 0
8:04 pm 20:04 Cloudy 54 12.2 48 8.9 80 80 ENE 6 9 29.98 1015 9 14.48406 0 0
8:52 pm 20:52 Cloudy 53 11.7 47 8.3 80 80 NE 8 13 29.96 1015 8 12.87472 0 0
9:12 pm 21:12 Cloudy 53 11.7 48 8.9 83 83 ENE 10 17 29.96 1015 8 12.87472 0 0
9:52 pm 21:52 Cloudy with Light Rain 53 11.7 49 9.4 86 86 E 7 11 29.93 1014 6 9.65604 0.01 0.254
10:20 pm 22:20 Cloudy with Light Rain 53 11.7 49 9.4 86 86 E 7 11 29.94 1014 5 8.0467 0.02 0.508
10:52 pm 22:52 Cloudy with Light Rain 52 11.1 49 9.4 89 89 E 7 11 29.91 1013 5 8.0467 0.04 1.016
11:34 pm 23:34 Cloudy with Light Rain 52 11.1 50 10 93 93 NNE 8 13 29.92 1013 4 6.43736 0.08 2.032
11:52 pm 23:52 Cloudy with Rain 52 11.1 50 10 93 93 NNE 8 13 29.89 1012 3 4.82802 0.1 2.54

Powered by AerisWeather